This is the latest recevied weather packets stored in our database for station/object KD2SIG. If no packets are shown the sender has not sent any weather packets the latest 1 day(s).
| Time | Temp. | Humidity | Pressure | Rain* | Wind** | Luminosity | Snow |
|---|---|---|---|---|---|---|---|
| 1836274605 | 5.56° C | 91% | 1024.3 hPa | 0 mm | 0 m/s | 0 W/m² | - |
| 1836274459 | 5.56° C | 91% | 1024.4 hPa | 0 mm | 0 m/s | 0 W/m² | - |
| 1836274303 | 5.56° C | 90% | 1024.4 hPa | 0 mm | 0 m/s | 0 W/m² | - |
| 1836274157 | 5.56° C | 91% | 1024.4 hPa | 0 mm | 0 m/s | 0 W/m² | - |
| 1836274002 | 5.56° C | 90% | 1024.5 hPa | 0 mm | 0 m/s | 0 W/m² | - |
| 1778043729 | 7.22° C | 96% | 1011.2 hPa | 1.27 mm | 0 m/s | 0 W/m² | - |
| 1778043426 | 7.22° C | 96% | 1011.2 hPa | 0 mm | 0 m/s | 0 W/m² | - |
| 1778043123 | 7.22° C | 96% | 1011.4 hPa | 1.78 mm | 0 m/s | 0 W/m² | - |
| 1778042821 | 7.22° C | 96% | 1011.5 hPa | 1.78 mm | 0 m/s | 0 W/m² | - |
| 1778042517 | 7.22° C | 96% | 1011.4 hPa | 0 mm | 0 m/s | 0 W/m² | - |
| 1778042214 | 7.22° C | 96% | 1011.4 hPa | 0 mm | 0 m/s | 0 W/m² | - |
| 1778041912 | 7.22° C | 96% | 1011.7 hPa | 0 mm | 0 m/s | 0 W/m² | - |
| 1778041612 | 7.22° C | 96% | 1011.4 hPa | 0 mm | 0 m/s | 0 W/m² | - |
| 1778041309 | 7.22° C | 96% | 1011.4 hPa | 1.27 mm | 0 m/s | 0 W/m² | - |
| 1778041007 | 7.22° C | 96% | 1011.2 hPa | 1.27 mm | 0 m/s | 0 W/m² | - |
| 1778040703 | 7.22° C | 96% | 1011.3 hPa | 0 mm | 0 m/s | 0 W/m² | - |
| 1778040401 | 7.22° C | 96% | 1011.4 hPa | 0 mm | 0 m/s | 0 W/m² | - |
| 1778040098 | 7.22° C | 96% | 1011.3 hPa | 1.78 mm | 0 m/s | 0 W/m² | - |
| 1778039795 | 7.22° C | 96% | 1011.3 hPa | 1.78 mm | 0.45 m/s, 231° | 0 W/m² | - |
| 1778039491 | 7.22° C | 96% | 1011 hPa | 0 mm | 0.45 m/s, 254° | 0 W/m² | - |
| 1778039189 | 7.22° C | 96% | 1011.4 hPa | 1.27 mm | 0 m/s | 0 W/m² | - |
| 1778038886 | 7.22° C | 96% | 1011.2 hPa | 1.27 mm | 0 m/s | 0 W/m² | - |
| 1778038583 | 7.22° C | 96% | 1011.3 hPa | 1.78 mm | 0.45 m/s, 247° | 0 W/m² | - |
| 1778038280 | 7.22° C | 96% | 1011.5 hPa | 1.78 mm | 0 m/s | 0 W/m² | - |
| 1778037977 | 7.22° C | 96% | 1011.5 hPa | 0 mm | 0 m/s | 0 W/m² | - |
* Rain latest hour (hover to see other rain measurements)
** Current wind speed in m/s (hover to see current wind gust speed)